Regional Weather Roundup
Issued by NWS Upton, NY

Current Version | Previous Version | Text Only | Print | Product List | Glossary On
Versions: 1 2 3 4 5 6 7 8 9 10 11 12 13 14 15 16 17 18 19 20 21 22 23 24 25 26 27 28 29 30 31 32 33 34 35 36 37 38 39 40 41 42 43 44 45 46 47 48 49 50
000
ASUS41 KOKX 301804
RWROKX

REGIONAL WEATHER ROUNDUP
NATIONAL WEATHER SERVICE NEW YORK NY
200 PM EDT SAT JUL 30 2016

NOTE: "FAIR" INDICATES FEW OR NO CLOUDS BELOW 12,000 FEET WITH NO
SIGNIFICANT WEATHER AND/OR OBSTRUCTIONS TO VISIBILITY.

NYZ071-072-176-178-NJZ106-104-301900-
NEW YORK CITY METRO AREA

CITY           SKY/WX    TMP DP  RH WIND       PRES   REMARKS
Central Park   CLOUDY    79  69  71 VRB6      30.03F
LaGuardia APRT PTSUNNY   79  70  74 NE10      30.00F
Kennedy INTL   PTSUNNY   83  69  62 SE10      30.02F
Newark/Liberty CLOUDY    86  70  58 E9        29.98F HX  90
Bronx Bot Gard   N/A     81  68  65 E3        30.02S
Wall St Helipt MOCLDY    86  72  62 NE8       30.00F HX  92
Teterboro      PTSUNNY   84  69  60 SE12      29.98F
$$

NYZ177-179-078>081-301900-
LONG ISLAND NEW YORK

CITY           SKY/WX    TMP DP  RH WIND       PRES   REMARKS
Farmingdale    CLOUDY    81  71  71 E8        30.02F
MacArthur/ISP  PTSUNNY   80  71  74 S8        30.02R
Shirley        PTSUNNY   79  71  76 SE10      30.04R
Riverhead      NOT AVBL
Westhampton    PTSUNNY   79  70  74 SE12      30.05S
Southhampton     N/A     75  72  88 S10       30.00S
Bridgehampton    N/A     81  73  78 S2        30.03S
East Hampton   FAIR      78  71  78 SE12      30.04S
Montauk          N/A     79  71  76 VRB5      30.05F
$$

NYZ052-065-067-301900-
HUDSON VALLEY

CITY           SKY/WX    TMP DP  RH WIND       PRES   REMARKS
White Plains   MOSUNNY   84  68  58 E8        30.02F
Newburgh       NOT AVBL
Montgomery     MOSUNNY   83  68  60 E6        30.01F
Poughkeepsie   MOSUNNY   85  66  53 E3        30.00F
Albany         PTSUNNY   77  60  55 NW6       30.05F
$$

NJZ001-105-106-008-010-013-015-019>022-104-301900-
NEW JERSEY

CITY           SKY/WX    TMP DP  RH WIND       PRES   REMARKS
Newark/Liberty CLOUDY    86  70  58 E9        29.98F HX  90
Teterboro      PTSUNNY   84  69  60 SE12      29.98F
Caldwell       CLOUDY    85  70  60 SE10      29.98F
Morristown     CLOUDY    84  72  65 E12       29.98F
Somerville     CLOUDY    84  71  65 S6        29.95F
Linden         FAIR      84  68  57 SE10      30.00F
Sussex         MOSUNNY   83  70  64 NE8       30.00F
Abdover          N/A     75  72  90 VRB3      30.00F
Trenton        HVY RAIN  78  74  87 N9        29.96F FOG
Millville      CLOUDY    82  70  66 S9        30.00F
Atlantic City  CLOUDY    82  69  64 S10       30.01F
Wrightstown    NOT AVBL
Toms River     CLOUDY    83  75  77 S10       30.00F HX  90
Belmar         CLOUDY    83  71  67 SE12      30.00F
$$

PAZ047>061-062-071-301900-
EASTERN PENNSYLVANIA

CITY           SKY/WX    TMP DP  RH WIND       PRES   REMARKS
Philadelphia   CLOUDY    86  70  58 S15       29.97F HX  90
Allentown      HVY RAIN  75  68  78 SE7G22    29.98F
Scranton       CLOUDY    73  69  87 NE9       30.01S
$$

CTZ002-004>006-009-010-012-RIZ004-006-007-MAZ004-011-015-301900-
SOUTHERN NEW ENGLAND
 IN CT

CITY           SKY/WX    TMP DP  RH WIND       PRES   REMARKS
Bradley INTL   PTSUNNY   88  61  40 S7        30.02F
Hartford       PTSUNNY   88  65  46 VRB3      30.00F HX  90
Danbury        MOSUNNY   83  69  62 E7        30.03F
Wtrbury/Oxford PTSUNNY   82  64  54 SW9       30.07F
Bridgeport     SUNNY     82  70  66 E12       30.02S
Meriden        PTSUNNY   85  66  53 S8        30.01F
New Haven      MOSUNNY   82  68  62 SE10      30.03S
Chester        FAIR      82  68  61 SE9G15    30.04F
Groton         PTSUNNY   80  68  66 SE13      30.03S
Wilimantic     MOSUNNY   86  64  47 VRB3      30.03S

 IN RI

CITY           SKY/WX    TMP DP  RH WIND       PRES   REMARKS
Providence     PTSUNNY   84  63  49 S10       30.03F
Block Island   MOSUNNY   78  70  76 SE9       30.05F
Westerly       MOSUNNY   79  65  62 SE12      30.05S
 IN MA

CITY           SKY/WX    TMP DP  RH WIND       PRES   REMARKS
Boston         MOSUNNY   78  58  49 E14       30.04S
Worchester     CLOUDY    80  56  43 S5        30.07F
Westfield      NOT AVBL
Provincetown   SUNNY     76  65  68 N8        30.05S
Nantucket      PTSUNNY   71  68  90 S10       30.05S
$$

ANZ330-335-338-340-345-350-353-355-301900-
COASTAL MARINE OBSERVATIONS


STATION/POSITION TIME  SKY/WX   TEMP    WIND        PRES    VSBY  WAVE
                                AIR SEA DIR/SP/G                  HT/PER
                 (UTC)          (F)     (DEG/KT/KT) (MB)    (MI)  (FT/S)
NY HARB ENTRANCE 1650            77 77  150/  6/  6 1016.4          2/ 5
20S FIRE ISLAND  1650            76 75  170/  4/  6 1016.7          2/ 6
GREAT SOUTH BAY  1715            77 82  200/  8/ 12   N/A
23 SSW MONTAUK P 1650            75 75  160/  6/  6 1017.8          2/ 7
15 E BARNEGAT LI 1700               79                N/A           2/ 5
HUDSON CANYON    1650            77 79              1017.5          2/ 5
KINGS POINT      1700            77 73              1016.2
EXECUTION ROCKS  1700            75      50/ 10/ 12   N/A
CENTRAL LI SOUND 1700            76 75   80/ 10/ 10   N/A           1
EASTERN LI SOUND 1700            73 68  160/  8/  8   N/A
ROBBINS REEF     1700            77     170/ 13/ 14 1015.5
$$


>>>>>>>>>>>>>>>>>>>>>>>>>>>> KEY <<<<<<<<<<<<<<<<<<<<<<<<<<<
>                                                          <
>     SKY/WX - Sky Condition/Present Weather               <
>     TMP    - Temperature in Fahrenheit                   <
>     DP     - Dew Point in Fahrenheit                     <
>     RH     - Relative Humidity in Percent                <
>     WIND   - Direction (from) and Speed in MPH           <
>     PRES   - Mean Sea Level Pressure (inches of Hg)      <
>     WCI    - Wind Chill Index                            <
>     VSB    - VISIBILITY IN MILES                         <
>     HX     - HEAT INDEX                                  <
>     TC     - TEMPERATURE IN CELSIUS                      <
>     VRB    - VARIABLE WIND DIRECTION                     <
>                                                          <
>>>>>>>>>>>>>>>>>>>>>>>>>>>> KEY <<<<<<<<<<<<<<<<<<<<<<<<<<<



USA.gov is the U.S. government's official web portal to all federal, state and local government web resources and services.